Location: Altleiningen
(49.5078°N, 8.0741°E)
Time: 21:43:05
(UTC+00:00)

Cosmos 1503 Rocket - Pass Details

Date: 03 March 2021
Orbit: 753 x 790 km, 74.0° (Epoch: 13 April)

Event Time Altitude Azimuth Distance (km) Brightness Sun altitude
Rises 18:28:21 0° 335° (NNW) 3,234 7.7 -12.9°
Reaches altitude 10° 18:30:44 10° 335° (NNW) 2,299 6.9 -13.3°
Maximum altitude 18:35:57 80° 249° (WSW) 772 4.1 -14.1°
Drops below altitude 10° 18:41:05 10° 163° (SSE) 2,272 6.2 -14.9°
Sets 18:43:26 0° 162° (SSE) 3,192 7.0 -15.3°
